• In Uzbekistan
  • List of Countries
  • For 7 days
  • Water Temperature
  • Satellite Maps
  • Weather Map
  • Weather Widgets
  • user-avatar
    Login

    Hourly Weather Naiham

    Today, 16 December, Saturday

    Time Temperature Precipitation Wind Pressure Humidity
    00:00 +16°C° 0 mm 1 mps 711 mmHg 95%
    01:00 +15°C° 0 mm 0 mps 711 mmHg 97%
    02:00 +16°C° 0 mm 1 mps 711 mmHg 96%
    03:00 +16°C° 0 mm 1 mps 712 mmHg 96%
    04:00 +16°C° 0 mm 1 mps 712 mmHg 95%
    05:00 +16°C° 0.1 mm 1 mps 712 mmHg 95%
    06:00 +15°C° 0.1 mm 1 mps 713 mmHg 94%
    07:00 +15°C° 0 mm 1 mps 713 mmHg 95%
    08:00 +15°C° 0.1 mm 1 mps 714 mmHg 94%
    09:00 +15°C° 0.1 mm 1 mps 714 mmHg 93%
    10:00 +15°C° 0.1 mm 1 mps 715 mmHg 92%
    11:00 +15°C° 0 mm 1 mps 715 mmHg 87%
    12:00 +16°C° 0 mm 1 mps 714 mmHg 83%
    13:00 +19°C° 0 mm 1 mps 714 mmHg 77%
    14:00 +19°C° 0 mm 1 mps 714 mmHg 76%
    15:00 +19°C° 0 mm 1 mps 713 mmHg 74%
    16:00 +19°C° 0 mm 1 mps 713 mmHg 72%
    17:00 +16°C° 0 mm 1 mps 713 mmHg 78%
    18:00 +14°C° 0 mm 1 mps 713 mmHg 85%
    19:00 +13°C° 0 mm 1 mps 714 mmHg 92%
    20:00 +12°C° 0 mm 1 mps 714 mmHg 93%
    21:00 +12°C° 0 mm 1 mps 714 mmHg 93%
    22:00 +11°C° 0 mm 1 mps 715 mmHg 94%
    23:00 +10°C° 0 mm 1 mps 715 mmHg 93%

    Tomorrow, 17 December, Sunday

    Time Temperature Precipitation Wind Pressure Humidity
    00:00 +10°C° 0 mm 1 mps 715 mmHg 93%
    01:00 +8°C° 0 mm 0 mps 715 mmHg 92%
    02:00 +8°C° 0 mm 0 mps 715 mmHg 90%
    03:00 +7°C° 0 mm 0 mps 715 mmHg 89%
    04:00 +7°C° 0 mm 0 mps 714 mmHg 87%
    05:00 +6°C° 0 mm 0 mps 715 mmHg 86%
    06:00 +6°C° 0 mm 0 mps 715 mmHg 84%
    07:00 +6°C° 0 mm 0 mps 715 mmHg 82%
    08:00 +9°C° 0 mm 0 mps 716 mmHg 68%
    09:00 +13°C° 0 mm 1 mps 716 mmHg 53%
    10:00 +15°C° 0 mm 1 mps 717 mmHg 39%
    11:00 +16°C° 0 mm 1 mps 716 mmHg 37%
    12:00 +19°C° 0 mm 1 mps 715 mmHg 35%
    13:00 +20°C° 0 mm 1 mps 715 mmHg 33%
    14:00 +19°C° 0 mm 1 mps 714 mmHg 36%
    15:00 +19°C° 0 mm 1 mps 713 mmHg 38%
    16:00 +18°C° 0 mm 1 mps 713 mmHg 41%
    17:00 +15°C° 0 mm 1 mps 713 mmHg 50%
    18:00 +12°C° 0 mm 1 mps 713 mmHg 59%
    19:00 +9°C° 0 mm 0 mps 713 mmHg 68%
    20:00 +8°C° 0 mm 0 mps 713 mmHg 69%
    21:00 +7°C° 0 mm 0 mps 714 mmHg 71%
    22:00 +7°C° 0 mm 0 mps 714 mmHg 73%
    23:00 +6°C° 0 mm 0 mps 714 mmHg 73%

    Day after tomorrow, 18 December, Monday

    Time Temperature Precipitation Wind Pressure Humidity
    00:00 +6°C° 0 mm 0 mps 714 mmHg 74%
    01:00 +6°C° 0 mm 0 mps 714 mmHg 74%
    02:00 +6°C° 0 mm 0 mps 714 mmHg 75%
    03:00 +5°C° 0 mm 0 mps 714 mmHg 75%
    04:00 +5°C° 0 mm 0 mps 713 mmHg 75%
    05:00 +5°C° 0 mm 0 mps 714 mmHg 74%
    06:00 +5°C° 0 mm 0 mps 714 mmHg 72%
    07:00 +5°C° 0 mm 0 mps 715 mmHg 71%
    08:00 +8°C° 0 mm 0 mps 715 mmHg 59%
    09:00 +12°C° 0 mm 1 mps 716 mmHg 47%
    10:00 +15°C° 0 mm 1 mps 716 mmHg 35%
    11:00 +16°C° 0 mm 1 mps 715 mmHg 33%
    12:00 +18°C° 0 mm 1 mps 715 mmHg 32%
    13:00 +19°C° 0 mm 1 mps 714 mmHg 30%
    14:00 +19°C° 0 mm 1 mps 713 mmHg 33%
    15:00 +19°C° 0 mm 1 mps 713 mmHg 36%
    16:00 +18°C° 0 mm 1 mps 712 mmHg 38%
    17:00 +15°C° 0 mm 1 mps 713 mmHg 47%
    18:00 +12°C° 0 mm 1 mps 713 mmHg 56%
    19:00 +8°C° 0 mm 0 mps 714 mmHg 65%
    20:00 +8°C° 0 mm 0 mps 714 mmHg 67%
    21:00 +7°C° 0 mm 0 mps 715 mmHg 68%
    22:00 +7°C° 0 mm 0 mps 715 mmHg 70%
    23:00 +6°C° 0 mm 0 mps 715 mmHg 70%

    19 December, Tuesday

    Time Temperature Precipitation Wind Pressure Humidity
    00:00 +6°C° 0 mm 0 mps 715 mmHg 71%
    01:00 +6°C° 0 mm 0 mps 715 mmHg 71%
    02:00 +6°C° 0 mm 0 mps 715 mmHg 72%
    03:00 +6°C° 0 mm 0 mps 715 mmHg 72%
    04:00 +5°C° 0 mm 0 mps 715 mmHg 72%
    05:00 +5°C° 0 mm 0 mps 715 mmHg 71%
    06:00 +5°C° 0 mm 0 mps 716 mmHg 70%
    07:00 +5°C° 0 mm 0 mps 716 mmHg 69%
    08:00 +9°C° 0 mm 1 mps 716 mmHg 57%
    09:00 +12°C° 0 mm 1 mps 717 mmHg 46%
    10:00 +15°C° 0 mm 2 mps 717 mmHg 35%
    11:00 +16°C° 0 mm 2 mps 717 mmHg 34%
    12:00 +17°C° 0 mm 2 mps 716 mmHg 34%
    13:00 +18°C° 0 mm 2 mps 715 mmHg 33%
    14:00 +18°C° 0 mm 2 mps 714 mmHg 35%
    15:00 +18°C° 0 mm 1 mps 714 mmHg 38%
    16:00 +18°C° 0 mm 1 mps 713 mmHg 40%
    17:00 +15°C° 0 mm 1 mps 714 mmHg 50%
    18:00 +12°C° 0 mm 1 mps 714 mmHg 59%
    19:00 +9°C° 0 mm 0 mps 714 mmHg 69%
    20:00 +8°C° 0 mm 0 mps 715 mmHg 71%
    21:00 +8°C° 0 mm 0 mps 715 mmHg 73%
    22:00 +7°C° 0 mm 0 mps 716 mmHg 74%
    23:00 +7°C° 0 mm 0 mps 716 mmHg 75%

    20 December, Wednesday

    Time Temperature Precipitation Wind Pressure Humidity
    00:00 +6°C° 0 mm 0 mps 715 mmHg 75%
    01:00 +6°C° 0 mm 0 mps 715 mmHg 76%
    02:00 +6°C° 0 mm 0 mps 715 mmHg 75%
    03:00 +6°C° 0 mm 0 mps 715 mmHg 74%
    04:00 +5°C° 0 mm 0 mps 715 mmHg 73%
    05:00 +5°C° 0 mm 0 mps 715 mmHg 71%
    06:00 +5°C° 0 mm 0 mps 716 mmHg 69%
    07:00 +5°C° 0 mm 0 mps 716 mmHg 67%
    08:00 +9°C° 0 mm 1 mps 717 mmHg 55%
    09:00 +13°C° 0 mm 1 mps 718 mmHg 42%
    10:00 +16°C° 0 mm 2 mps 718 mmHg 30%
    11:00 +17°C° 0 mm 2 mps 717 mmHg 28%
    12:00 +18°C° 0 mm 2 mps 717 mmHg 26%
    13:00 +19°C° 0 mm 2 mps 716 mmHg 25%
    14:00 +18°C° 0 mm 2 mps 715 mmHg 27%
    15:00 +18°C° 0 mm 2 mps 715 mmHg 30%
    16:00 +18°C° 0 mm 1 mps 714 mmHg 33%
    17:00 +15°C° 0 mm 1 mps 715 mmHg 41%
    18:00 +12°C° 0 mm 1 mps 715 mmHg 50%
    19:00 +8°C° 0 mm 0 mps 715 mmHg 58%
    20:00 +8°C° 0 mm 0 mps 716 mmHg 59%
    21:00 +7°C° 0 mm 0 mps 716 mmHg 61%
    22:00 +7°C° 0 mm 0 mps 717 mmHg 62%
    23:00 +6°C° 0 mm 0 mps 716 mmHg 63%

    21 December, Thursday

    Time Temperature Precipitation Wind Pressure Humidity
    00:00 +6°C° 0 mm 0 mps 716 mmHg 63%
    01:00 +6°C° 0 mm 0 mps 716 mmHg 64%
    02:00 +6°C° 0 mm 0 mps 715 mmHg 64%
    03:00 +5°C° 0 mm 0 mps 715 mmHg 64%
    04:00 +5°C° 0 mm 0 mps 715 mmHg 64%
    05:00 +5°C° 0 mm 0 mps 715 mmHg 64%
    06:00 +5°C° 0 mm 0 mps 715 mmHg 64%
    07:00 +5°C° 0 mm 0 mps 716 mmHg 64%
    08:00 +9°C° 0 mm 1 mps 716 mmHg 52%
    09:00 +13°C° 0 mm 1 mps 716 mmHg 40%
    10:00 +18°C° 0 mm 1 mps 717 mmHg 27%
    11:00 +19°C° 0 mm 1 mps 716 mmHg 26%
    12:00 +20°C° 0 mm 1 mps 715 mmHg 24%
    13:00 +21°C° 0 mm 1 mps 714 mmHg 22%
    14:00 +20°C° 0 mm 1 mps 713 mmHg 25%
    15:00 +20°C° 0 mm 1 mps 712 mmHg 28%
    16:00 +19°C° 0 mm 1 mps 712 mmHg 31%
    17:00 +15°C° 0 mm 1 mps 712 mmHg 40%
    18:00 +11°C° 0 mm 0 mps 712 mmHg 48%
    19:00 +9°C° 0 mm 0 mps 712 mmHg 56%
    20:00 +8°C° 0 mm 0 mps 712 mmHg 58%
    21:00 +7°C° 0 mm 0 mps 712 mmHg 59%
    22:00 +7°C° 0 mm 0 mps 713 mmHg 60%
    23:00 +7°C° 0 mm 0 mps 712 mmHg 61%
    Show more